{"data":{"norad_id":55620,"epoch":"2026-09-20T21:27:16.467840Z","epoch_age_seconds":66349,"freshness":"FRESH","line1":"1 55620U 23020BD  26263.89394060 -.00001464  00000+0 -43669-4 0  9991","line2":"2 55620  43.0036 331.7887 0001579 269.3543  90.7128 15.27577245198894","mean_motion":15.27577245,"eccentricity":0.0001579,"inclination_deg":43.0036,"raan_deg":331.7887,"arg_perigee_deg":269.3543,"mean_anomaly_deg":90.7128,"bstar":-4.3669e-5,"rev_number":19889,"period_min":94.266918724624,"perigee_km":481.973962926,"apogee_km":484.14072810031,"semimajor_km":6861.1943455132,"source":"CELESTRAK","updated_at":"2026-09-21T09:00:33.277378Z"}}